Time,TemperatureF,DewpointF,PressureIn,WindDirection,WindDirectionDegrees,WindSpeedMPH,WindSpeedGustMPH,Humidity,HourlyPrecipIn,Conditions,Clouds,dailyrainin,SoftwareType,DateUTC
2013-01-12 07:03:00,27.0,26.0,30.17,ENE,70,0.0,0.0,97,0.00,,,0.00,,2013-01-12 15:03:00,
2013-01-12 07:12:00,27.0,26.0,30.17,ENE,70,0.0,0.0,97,0.00,,,0.00,,2013-01-12 15:12:00,
2013-01-12 07:22:00,27.0,26.0,30.17,ENE,70,0.0,0.0,97,0.00,,,0.00,,2013-01-12 15:22:00,
2013-01-12 07:33:00,27.0,26.0,30.18,ENE,70,0.0,0.0,97,0.00,,,0.00,,2013-01-12 15:33:00,
2013-01-12 07:42:00,27.0,26.0,30.18,ENE,70,0.0,0.0,97,0.00,,,0.00,,2013-01-12 15:42:00,
2013-01-12 07:52:00,27.0,26.0,30.18,ENE,70,0.0,0.0,97,0.00,,,0.00,,2013-01-12 15:52:00,
2013-01-12 08:02:00,28.0,27.0,30.18,ENE,70,0.0,0.0,97,0.00,,,0.00,,2013-01-12 16:02:00,
2013-01-12 08:12:00,28.0,27.0,30.18,ENE,70,0.0,0.0,97,0.00,,,0.00,,2013-01-12 16:12:00,
2013-01-12 08:22:00,28.0,27.0,30.19,ENE,70,0.0,0.0,97,0.00,,,0.00,,2013-01-12 16:22:00,
2013-01-12 08:32:00,28.0,27.0,30.19,ENE,70,0.0,0.0,97,0.00,,,0.00,,2013-01-12 16:32:00,
2013-01-12 08:42:00,28.0,27.0,30.19,ENE,70,0.0,0.0,97,0.00,,,0.00,,2013-01-12 16:42:00,
2013-01-12 08:52:00,28.0,27.0,30.19,ENE,70,0.0,0.0,97,0.00,,,0.00,,2013-01-12 16:52:00,
2013-01-12 09:02:00,28.0,27.0,30.19,ENE,70,0.0,0.0,97,0.00,,,0.00,,2013-01-12 17:02:00,
2013-01-12 09:12:00,28.0,27.0,30.19,ENE,70,0.0,0.0,97,0.00,,,0.00,,2013-01-12 17:12:00,
2013-01-12 09:22:00,29.0,28.0,30.20,ENE,70,0.0,0.0,97,0.00,,,0.00,,2013-01-12 17:22:00,
2013-01-12 09:32:00,30.0,29.0,30.20,ESE,114,0.0,0.0,97,0.00,,,0.00,,2013-01-12 17:32:00,
2013-01-12 09:42:00,30.0,29.0,30.20,ESE,114,0.0,0.0,97,0.00,,,0.00,,2013-01-12 17:42:00,
2013-01-12 09:53:00,33.0,31.0,30.19,ESE,116,0.0,0.0,94,0.00,,,0.00,,2013-01-12 17:53:00,
2013-01-12 10:02:00,36.0,33.0,30.19,ESE,116,0.0,0.0,87,0.00,,,0.00,,2013-01-12 18:02:00,
2013-01-12 10:12:00,36.0,33.0,30.19,ESE,116,0.0,0.0,87,0.00,,,0.00,,2013-01-12 18:12:00,
2013-01-12 10:22:00,38.0,33.0,30.20,ESE,116,0.0,0.0,82,0.00,,,0.00,,2013-01-12 18:22:00,
2013-01-12 10:33:00,39.0,33.0,30.20,NNE,12,2.0,6.0,78,0.00,,,0.00,,2013-01-12 18:33:00,
2013-01-12 10:42:00,39.0,33.0,30.20,NNE,12,2.0,6.0,78,0.00,,,0.00,,2013-01-12 18:42:00,
2013-01-12 10:52:00,40.0,31.0,30.19,West,261,1.0,6.0,71,0.00,,,0.00,,2013-01-12 18:52:00,
2013-01-12 11:02:00,42.0,32.0,30.19,WSW,256,1.0,2.0,67,0.00,,,0.00,,2013-01-12 19:02:00,
2013-01-12 11:12:00,42.0,32.0,30.19,WSW,256,1.0,2.0,67,0.00,,,0.00,,2013-01-12 19:12:00,
2013-01-12 11:22:00,43.0,28.0,30.18,WNW,290,1.0,2.0,56,0.00,,,0.00,,2013-01-12 19:22:00,
2013-01-12 11:32:00,45.0,29.0,30.17,SSE,155,1.0,3.0,53,0.00,,,0.00,,2013-01-12 19:32:00,
2013-01-12 11:42:00,45.0,29.0,30.17,SSE,155,1.0,3.0,53,0.00,,,0.00,,2013-01-12 19:42:00,
2013-01-12 11:52:00,46.0,29.0,30.16,SSW,197,1.0,3.0,51,0.00,,,0.00,,2013-01-12 19:52:00,
2013-01-12 12:02:00,46.0,27.0,30.16,SSE,166,2.0,3.0,48,0.00,,,0.00,,2013-01-12 20:02:00,
2013-01-12 12:12:00,47.0,29.0,30.16,NW,309,2.0,5.0,49,0.00,,,0.00,,2013-01-12 20:12:00,
2013-01-12 12:22:00,47.0,29.0,30.16,NW,309,2.0,5.0,49,0.00,,,0.00,,2013-01-12 20:22:00,
2013-01-12 12:32:00,47.0,30.0,30.15,SSE,165,2.0,5.0,52,0.00,,,0.00,,2013-01-12 20:32:00,
2013-01-12 12:42:00,47.0,30.0,30.15,SSE,165,2.0,5.0,52,0.00,,,0.00,,2013-01-12 20:42:00,
2013-01-12 12:52:00,47.0,30.0,30.14,South,185,1.0,5.0,51,0.00,,,0.00,,2013-01-12 20:52:00,
2013-01-12 13:02:00,47.0,29.0,30.13,SSE,159,2.0,4.0,50,0.00,,,0.00,,2013-01-12 21:02:00,
2013-01-12 13:12:00,47.0,28.0,30.13,West,268,1.0,6.0,48,0.00,,,0.00,,2013-01-12 21:12:00,
2013-01-12 13:22:00,47.0,28.0,30.13,West,268,1.0,6.0,48,0.00,,,0.00,,2013-01-12 21:22:00,
2013-01-12 13:32:00,47.0,27.0,30.12,South,170,2.0,5.0,46,0.00,,,0.00,,2013-01-12 21:32:00,
2013-01-12 13:42:00,47.0,27.0,30.12,South,170,2.0,5.0,46,0.00,,,0.00,,2013-01-12 21:42:00,
2013-01-12 13:52:00,48.0,28.0,30.11,South,177,2.0,4.0,46,0.00,,,0.00,,2013-01-12 21:52:00,
2013-01-12 14:02:00,47.0,28.0,30.11,ESE,107,2.0,5.0,47,0.00,,,0.00,,2013-01-12 22:02:00,
2013-01-12 14:12:00,47.0,28.0,30.11,ESE,107,2.0,5.0,47,0.00,,,0.00,,2013-01-12 22:12:00,
2013-01-12 14:22:00,48.0,28.0,30.11,South,189,1.0,4.0,46,0.00,,,0.00,,2013-01-12 22:22:00,
2013-01-12 14:32:00,49.0,29.0,30.11,SSE,157,2.0,3.0,45,0.00,,,0.00,,2013-01-12 22:32:00,
2013-01-12 14:43:00,49.0,29.0,30.11,SSE,157,2.0,3.0,45,0.00,,,0.00,,2013-01-12 22:43:00,
2013-01-12 14:52:00,49.0,28.0,30.11,West,281,1.0,4.0,44,0.00,,,0.00,,2013-01-12 22:52:00,
2013-01-12 15:02:00,49.0,29.0,30.11,SSE,165,2.0,3.0,45,0.00,,,0.00,,2013-01-12 23:02:00,
2013-01-12 15:12:00,49.0,29.0,30.10,SE,140,2.0,3.0,45,0.00,,,0.00,,2013-01-12 23:12:00,
2013-01-12 15:22:00,49.0,29.0,30.10,SE,140,2.0,3.0,45,0.00,,,0.00,,2013-01-12 23:22:00,
2013-01-12 15:32:00,49.0,31.0,30.10,SW,225,1.0,2.0,50,0.00,,,0.00,,2013-01-12 23:32:00,
2013-01-12 15:42:00,49.0,31.0,30.10,SW,225,1.0,2.0,50,0.00,,,0.00,,2013-01-12 23:42:00,
2013-01-12 15:52:00,49.0,32.0,30.10,South,180,1.0,2.0,51,0.00,,,0.00,,2013-01-12 23:52:00,
2013-01-12 16:02:00,49.0,32.0,30.10,South,180,1.0,2.0,51,0.00,,,0.00,,2013-01-13 00:02:00,
2013-01-12 16:12:00,49.0,32.0,30.10,South,180,1.0,2.0,51,0.00,,,0.00,,2013-01-13 00:12:00,
2013-01-12 16:22:00,46.0,31.0,30.09,SSW,212,0.0,1.0,56,0.00,,,0.00,,2013-01-13 00:22:00,
2013-01-12 16:32:00,43.0,32.0,30.09,SSW,212,0.0,1.0,64,0.00,,,0.00,,2013-01-13 00:32:00,
2013-01-12 16:42:00,43.0,32.0,30.09,SSW,212,0.0,1.0,64,0.00,,,0.00,,2013-01-13 00:42:00,
2013-01-12 16:52:00,41.0,31.0,30.09,SSW,212,0.0,1.0,68,0.00,,,0.00,,2013-01-13 00:52:00,
2013-01-12 17:02:00,40.0,31.0,30.09,SSW,212,0.0,1.0,71,0.00,,,0.00,,2013-01-13 01:02:00,
2013-01-12 17:22:00,39.0,31.0,30.09,SSW,212,0.0,1.0,73,0.00,,,0.00,,2013-01-13 01:22:00,
2013-01-12 17:32:00,38.0,31.0,30.10,SSW,212,0.0,1.0,75,0.00,,,0.00,,2013-01-13 01:32:00,
2013-01-12 17:42:00,38.0,31.0,30.10,SSW,212,0.0,1.0,75,0.00,,,0.00,,2013-01-13 01:42:00,
2013-01-12 17:52:00,37.0,30.0,30.10,SSW,212,0.0,1.0,76,0.00,,,0.00,,2013-01-13 01:52:00,
2013-01-12 18:02:00,37.0,31.0,30.11,SSW,212,1.0,2.0,78,0.00,,,0.00,,2013-01-13 02:02:00,
2013-01-12 18:12:00,37.0,31.0,30.11,SSW,212,1.0,2.0,78,0.00,,,0.00,,2013-01-13 02:12:00,
2013-01-12 18:22:00,38.0,31.0,30.10,SSW,211,0.0,1.0,77,0.00,,,0.00,,2013-01-13 02:22:00,
2013-01-12 18:32:00,38.0,31.0,30.09,SSW,211,0.0,1.0,77,0.00,,,0.00,,2013-01-13 02:32:00,
2013-01-12 18:42:00,38.0,31.0,30.09,SSW,211,0.0,1.0,77,0.00,,,0.00,,2013-01-13 02:42:00,
2013-01-12 18:52:00,39.0,32.0,30.10,SSW,200,0.0,1.0,75,0.00,,,0.00,,2013-01-13 02:52:00,
2013-01-12 19:02:00,38.0,32.0,30.10,SSW,200,0.0,1.0,78,0.00,,,0.00,,2013-01-13 03:02:00,
2013-01-12 19:12:00,38.0,32.0,30.10,SSW,200,0.0,1.0,78,0.00,,,0.00,,2013-01-13 03:12:00,
2013-01-12 19:22:00,38.0,31.0,30.11,SSW,200,0.0,1.0,77,0.00,,,0.00,,2013-01-13 03:22:00,
2013-01-12 19:32:00,37.0,31.0,30.11,SSW,200,0.0,1.0,80,0.00,,,0.00,,2013-01-13 03:32:00,
2013-01-12 19:42:00,37.0,31.0,30.11,SSW,200,0.0,1.0,80,0.00,,,0.00,,2013-01-13 03:42:00,
2013-01-12 19:52:00,35.0,30.0,30.11,SSW,200,0.0,1.0,81,0.00,,,0.00,,2013-01-13 03:52:00,
2013-01-12 20:02:00,34.0,29.0,30.11,SSW,200,0.0,1.0,83,0.00,,,0.00,,2013-01-13 04:02:00,
2013-01-12 20:12:00,34.0,29.0,30.11,SSW,200,0.0,1.0,83,0.00,,,0.00,,2013-01-13 04:12:00,
2013-01-12 20:22:00,33.0,29.0,30.11,SSW,200,0.0,1.0,85,0.00,,,0.00,,2013-01-13 04:22:00,
2013-01-12 20:32:00,32.0,28.0,30.11,SSW,200,0.0,1.0,86,0.00,,,0.00,,2013-01-13 04:32:00,
2013-01-12 20:42:00,32.0,28.0,30.11,SSW,200,0.0,1.0,86,0.00,,,0.00,,2013-01-13 04:42:00,
2013-01-12 20:52:00,31.0,28.0,30.12,SSW,200,1.0,1.0,87,0.00,,,0.00,,2013-01-13 04:52:00,
2013-01-12 21:12:00,31.0,28.0,30.12,SSW,200,1.0,1.0,87,0.00,,,0.00,,2013-01-13 05:12:00,